Location: Aldenham
(51.6667°N, 0.3500°W)
Time: 01:24:54
(UTC+00:00)

Altair - Pass Details

Date: 24 February 2026
Orbit: 1502 x 1682 km, 47.2° (Epoch: 10 March)

Event Time Altitude Azimuth Distance (km) Brightness Sun altitude
Rises 10:45:41 0° 284° (WNW) 4,721 9.7 26.0°
Reaches altitude 10° 10:50:40 10° 262° (W) 3,770 9.5 26.3°
Maximum altitude 10:55:05 14° 234° (SW) 3,469 9.7 26.6°
Drops below altitude 10° 10:59:34 10° 206° (SSW) 3,830 10.3 26.9°
Sets 11:04:45 0° 184° (S) 4,849 11.2 27.1°
